| time (UTC) | temp C | wind direction | speed KPH | gust KPH | rain 1hr cm | rain 24hr cm | rain mn cm | humidity % | barometer mb |
| 20260507094055 | 4 | 0 | 0.0 | 0.0 | 0.00 | 0.00 | 0.00 | 95 | 1014.0 |
| 20260507093554 | 4 | 0 | 0.0 | 0.0 | 0.00 | 0.00 | 0.00 | 94 | 1014.0 |
| 20260507093054 | 4 | 0 | 0.0 | 0.0 | 0.00 | 0.00 | 0.00 | 94 | 1014.0 |
| 20260507092554 | 4 | 0 | 0.0 | 0.0 | 0.00 | 0.00 | 0.00 | 94 | 1013.9 |
| 20260507092054 | 4 | 0 | 0.0 | 0.0 | 0.00 | 0.00 | 0.00 | 94 | 1013.9 |
| 20260507091551 | 5 | 0 | 0.0 | 0.0 | 0.00 | 0.00 | 0.00 | 94 | 1013.8 |
| 20260507091051 | 5 | 0 | 0.0 | 0.0 | 0.00 | 0.00 | 0.00 | 94 | 1013.8 |
| 20260507090550 | 5 | 0 | 0.0 | 0.0 | 0.00 | 0.00 | 0.00 | 94 | 1013.8 |
| 20260507090050 | 5 | 0 | 0.0 | 0.0 | 0.00 | 0.00 | 0.00 | 94 | 1013.8 |
| 20260507085548 | 5 | 0 | 0.0 | 0.0 | 0.00 | 0.00 | 0.00 | 94 | 1013.7 |
| 20260507085048 | 5 | 0 | 0.0 | 0.0 | 0.00 | 0.00 | 0.00 | 94 | 1013.8 |
| 20260507084546 | 5 | 0 | 0.0 | 0.0 | 0.00 | 0.00 | 0.00 | 94 | 1013.7 |
| 20260507084046 | 5 | 0 | 0.0 | 0.0 | 0.00 | 0.00 | 0.00 | 94 | 1013.6 |
| 20260507083546 | 5 | 0 | 0.0 | 0.0 | 0.00 | 0.00 | 0.00 | 94 | 1013.7 |
| 20260507083045 | 5 | 0 | 0.0 | 0.0 | 0.00 | 0.00 | 0.00 | 94 | 1013.7 |
| 20260507082545 | 5 | 0 | 0.0 | 0.0 | 0.00 | 0.00 | 0.00 | 94 | 1013.6 |
| 20260507082045 | 5 | 0 | 0.0 | 0.0 | 0.00 | 0.00 | 0.00 | 94 | 1013.5 |
| 20260507081544 | 5 | 18 | 0.0 | 1.6 | 0.00 | 0.00 | 0.00 | 94 | 1013.6 |
| 20260507081043 | 5 | 23 | 0.0 | 3.2 | 0.00 | 0.00 | 0.00 | 94 | 1013.6 |
| 20260507080543 | 5 | 24 | 0.0 | 3.2 | 0.00 | 0.00 | 0.00 | 94 | 1013.6 |
| 20260507080043 | 5 | 0 | 0.0 | 0.0 | 0.00 | 0.00 | 0.00 | 94 | 1013.6 |
| 20260507075542 | 5 | 0 | 0.0 | 0.0 | 0.00 | 0.00 | 0.00 | 94 | 1013.6 |
| 20260507075041 | 5 | 356 | 0.0 | 1.6 | 0.00 | 0.00 | 0.00 | 94 | 1013.6 |
| 20260507074541 | 5 | 14 | 1.6 | 4.8 | 0.00 | 0.00 | 0.00 | 94 | 1013.6 |
| 20260507074041 | 5 | 20 | 0.0 | 3.2 | 0.00 | 0.00 | 0.00 | 94 | 1013.6 |
| 20260507073540 | 5 | 0 | 0.0 | 0.0 | 0.00 | 0.00 | 0.00 | 94 | 1013.6 |
| 20260507072539 | 5 | 0 | 0.0 | 0.0 | 0.00 | 0.00 | 0.00 | 94 | 1013.6 |
| 20260507072039 | 6 | 0 | 0.0 | 0.0 | 0.00 | 0.00 | 0.00 | 94 | 1013.6 |
| 20260507071538 | 6 | 0 | 0.0 | 0.0 | 0.00 | 0.00 | 0.00 | 93 | 1013.7 |
| 20260507071037 | 6 | 0 | 0.0 | 0.0 | 0.00 | 0.00 | 0.00 | 94 | 1013.6 |
| 20260507070537 | 6 | 0 | 0.0 | 0.0 | 0.00 | 0.00 | 0.00 | 93 | 1013.6 |
| 20260507070036 | 6 | 0 | 0.0 | 0.0 | 0.00 | 0.00 | 0.00 | 93 | 1013.7 |
| 20260507065536 | 6 | 0 | 0.0 | 0.0 | 0.00 | 0.00 | 0.00 | 93 | 1013.7 |
| 20260507065036 | 6 | 0 | 0.0 | 0.0 | 0.00 | 0.00 | 0.00 | 93 | 1013.7 |
| 20260507064536 | 6 | 0 | 0.0 | 0.0 | 0.00 | 0.00 | 0.00 | 93 | 1013.8 |
| 20260507064035 | 6 | 0 | 0.0 | 0.0 | 0.00 | 0.00 | 0.00 | 93 | 1013.8 |
| 20260507063534 | 6 | 0 | 0.0 | 0.0 | 0.00 | 0.00 | 0.00 | 93 | 1013.8 |
| 20260507063034 | 6 | 0 | 0.0 | 0.0 | 0.00 | 0.00 | 0.00 | 93 | 1013.8 |
| 20260507062531 | 6 | 0 | 0.0 | 0.0 | 0.00 | 0.00 | 0.00 | 93 | 1013.7 |
| 20260507062030 | 7 | 0 | 0.0 | 0.0 | 0.00 | 0.00 | 0.00 | 93 | 1013.8 |
| 20260507061028 | 7 | 0 | 0.0 | 0.0 | 0.00 | 0.00 | 0.00 | 92 | 1013.8 |
| 20260507060527 | 7 | 0 | 0.0 | 0.0 | 0.00 | 0.00 | 0.00 | 92 | 1013.8 |
| 20260507060027 | 7 | 0 | 0.0 | 0.0 | 0.00 | 0.00 | 0.00 | 92 | 1013.8 |
| 20260507055527 | 7 | 0 | 0.0 | 0.0 | 0.00 | 0.00 | 0.00 | 92 | 1013.8 |
| 20260507055027 | 7 | 0 | 0.0 | 0.0 | 0.00 | 0.00 | 0.00 | 92 | 1013.8 |
| 20260507054526 | 7 | 0 | 0.0 | 0.0 | 0.00 | 0.00 | 0.00 | 92 | 1013.9 |
| 20260507054026 | 7 | 0 | 0.0 | 0.0 | 0.00 | 0.00 | 0.00 | 92 | 1013.9 |
| 20260507053525 | 7 | 0 | 0.0 | 0.0 | 0.00 | 0.00 | 0.00 | 92 | 1013.8 |
| 20260507053024 | 7 | 0 | 0.0 | 0.0 | 0.00 | 0.00 | 0.00 | 91 | 1013.8 |
| 20260507052524 | 7 | 0 | 0.0 | 0.0 | 0.00 | 0.00 | 0.00 | 91 | 1013.8 |
| 20260507052024 | 7 | 0 | 0.0 | 0.0 | 0.00 | 0.00 | 0.00 | 91 | 1013.9 |
| 20260507051523 | 7 | 0 | 0.0 | 0.0 | 0.00 | 0.00 | 0.00 | 91 | 1014.0 |
| 20260507051023 | 7 | 0 | 0.0 | 0.0 | 0.00 | 0.00 | 0.00 | 91 | 1014.0 |
| 20260507050523 | 7 | 0 | 0.0 | 0.0 | 0.00 | 0.00 | 0.00 | 91 | 1014.1 |
| 20260507050023 | 7 | 0 | 0.0 | 0.0 | 0.00 | 0.00 | 0.00 | 91 | 1014.1 |
| 20260507045521 | 7 | 0 | 0.0 | 0.0 | 0.00 | 0.00 | 0.00 | 91 | 1014.1 |
| 20260507045021 | 7 | 38 | 0.0 | 3.2 | 0.00 | 0.00 | 0.00 | 91 | 1014.0 |
| 20260507044520 | 7 | 17 | 1.6 | 4.8 | 0.00 | 0.00 | 0.00 | 91 | 1013.9 |
| 20260507044020 | 7 | 323 | 1.6 | 3.2 | 0.00 | 0.00 | 0.00 | 91 | 1013.9 |
| 20260507043519 | 7 | 10 | 1.6 | 3.2 | 0.00 | 0.00 | 0.00 | 91 | 1013.8 |
| 20260507043018 | 7 | 0 | 0.0 | 0.0 | 0.00 | 0.00 | 0.00 | 91 | 1013.9 |
| 20260507042518 | 8 | 8 | 1.6 | 3.2 | 0.00 | 0.00 | 0.00 | 91 | 1013.9 |
| 20260507042018 | 8 | 10 | 3.2 | 3.2 | 0.00 | 0.00 | 0.00 | 91 | 1013.9 |
| 20260507041518 | 8 | 13 | 1.6 | 3.2 | 0.00 | 0.00 | 0.00 | 91 | 1013.8 |
| 20260507041017 | 8 | 7 | 1.6 | 3.2 | 0.00 | 0.00 | 0.00 | 91 | 1013.8 |
| 20260507040517 | 7 | 4 | 3.2 | 4.8 | 0.00 | 0.00 | 0.00 | 91 | 1013.7 |
| 20260507040017 | 7 | 14 | 1.6 | 3.2 | 0.00 | 0.00 | 1.19 | 90 | 1013.8 |
| 20260507035517 | 8 | 11 | 1.6 | 3.2 | 0.00 | 0.00 | 1.19 | 90 | 1013.8 |
| 20260507034516 | 8 | 11 | 3.2 | 3.2 | 0.00 | 0.00 | 1.19 | 89 | 1013.8 |
| 20260507034016 | 8 | 13 | 3.2 | 4.8 | 0.00 | 0.00 | 1.19 | 89 | 1013.7 |
| 20260507033014 | 8 | 14 | 1.6 | 4.8 | 0.00 | 0.00 | 1.19 | 88 | 1013.8 |
| 20260507032514 | 8 | 17 | 3.2 | 3.2 | 0.00 | 0.00 | 1.19 | 88 | 1013.8 |
| 20260507032017 | 8 | 10 | 1.6 | 4.8 | 0.00 | 0.00 | 1.19 | 88 | 1013.8 |
| 20260507031509 | 8 | 0 | 0.0 | 0.0 | 0.00 | 0.00 | 1.19 | 88 | 1013.8 |
| 20260507031009 | 8 | 0 | 0.0 | 0.0 | 0.00 | 0.00 | 1.19 | 87 | 1013.9 |
| 20260507030508 | 8 | 0 | 0.0 | 0.0 | 0.00 | 0.00 | 1.19 | 87 | 1013.9 |
| 20260507025506 | 8 | 0 | 0.0 | 0.0 | 0.00 | 0.00 | 1.19 | 86 | 1013.9 |
| 20260507025006 | 8 | 0 | 0.0 | 0.0 | 0.00 | 0.00 | 1.19 | 85 | 1013.9 |
| 20260507024505 | 8 | 15 | 1.6 | 3.2 | 0.00 | 0.00 | 1.19 | 85 | 1013.9 |
| 20260507023504 | 8 | 13 | 3.2 | 4.8 | 0.00 | 0.00 | 1.19 | 84 | 1013.9 |
| 20260507023004 | 9 | 7 | 1.6 | 3.2 | 0.00 | 0.00 | 1.19 | 84 | 1013.9 |
| 20260507022503 | 9 | 0 | 0.0 | 0.0 | 0.00 | 0.00 | 1.19 | 82 | 1013.9 |
| 20260507022003 | 9 | 24 | 0.0 | 1.6 | 0.00 | 0.00 | 1.19 | 81 | 1013.9 |
| 20260507021503 | 9 | 24 | 0.0 | 0.0 | 0.00 | 0.00 | 1.19 | 80 | 1013.8 |
| 20260507021002 | 10 | 0 | 0.0 | 0.0 | 0.00 | 0.00 | 1.19 | 79 | 1013.7 |
| 20260507020501 | 10 | 0 | 0.0 | 0.0 | 0.00 | 0.00 | 1.19 | 78 | 1013.6 |
| 20260507020000 | 10 | 0 | 0.0 | 0.0 | 0.00 | 0.00 | 1.19 | 78 | 1013.6 |
| 20260507015500 | 10 | 0 | 0.0 | 0.0 | 0.00 | 0.00 | 1.19 | 77 | 1013.5 |
| 20260507014959 | 10 | 0 | 0.0 | 0.0 | 0.00 | 0.00 | 1.19 | 77 | 1013.5 |
| 20260507014458 | 10 | 304 | 0.0 | 3.2 | 0.00 | 0.00 | 1.19 | 78 | 1013.4 |
| 20260507013958 | 10 | 347 | 0.0 | 3.2 | 0.00 | 0.00 | 1.19 | 79 | 1013.4 |
| 20260507013458 | 10 | 332 | 0.0 | 0.0 | 0.00 | 0.00 | 1.19 | 80 | 1013.3 |
| 20260507012957 | 10 | 180 | 0.0 | 4.8 | 0.00 | 0.00 | 1.19 | 80 | 1013.2 |
| 20260507012456 | 10 | 0 | 0.0 | 0.0 | 0.00 | 0.00 | 1.19 | 79 | 1013.2 |
| 20260507011956 | 10 | 0 | 0.0 | 0.0 | 0.00 | 0.00 | 1.19 | 78 | 1013.3 |
| 20260507011456 | 10 | 0 | 0.0 | 0.0 | 0.00 | 0.00 | 1.19 | 76 | 1013.2 |
| 20260507010954 | 10 | 0 | 0.0 | 0.0 | 0.00 | 0.00 | 1.19 | 75 | 1013.3 |
| 20260507010453 | 10 | 0 | 0.0 | 0.0 | 0.00 | 0.00 | 1.19 | 73 | 1013.2 |
| 20260507005453 | 11 | 0 | 0.0 | 0.0 | 0.00 | 0.00 | 1.19 | 69 | 1013.3 |
| 20260507004953 | 11 | 0 | 0.0 | 0.0 | 0.00 | 0.00 | 1.19 | 66 | 1013.2 |
| 20260507004452 | 12 | 0 | 0.0 | 0.0 | 0.00 | 0.00 | 1.19 | 64 | 1013.1 |
| 20260507003952 | 12 | 0 | 0.0 | 0.0 | 0.00 | 0.00 | 1.19 | 62 | 1013.1 |
| 20260507003451 | 12 | 304 | 0.0 | 1.6 | 0.00 | 0.00 | 1.19 | 60 | 1013.0 |
| 20260507002951 | 12 | 283 | 1.6 | 4.8 | 0.00 | 0.00 | 1.19 | 59 | 1013.0 |
| 20260507002451 | 12 | 264 | 1.6 | 4.8 | 0.00 | 0.00 | 1.19 | 59 | 1012.9 |
| 20260507001952 | 12 | 297 | 3.2 | 6.4 | 0.00 | 0.00 | 1.19 | 59 | 1012.8 |
| 20260507001448 | 12 | 295 | 1.6 | 6.4 | 0.00 | 0.00 | 1.19 | 61 | 1012.8 |
| 20260507000948 | 13 | 0 | 0.0 | 0.0 | 0.00 | 0.00 | 1.19 | 60 | 1012.6 |
| 20260507000444 | 13 | 17 | 0.0 | 6.4 | 0.00 | 0.00 | 1.19 | 59 | 1012.6 |
| 20260506235944 | 13 | 8 | 0.0 | 1.6 | 0.00 | 0.00 | 1.19 | 59 | 1012.5 |
| 20260506235444 | 13 | 359 | 1.6 | 6.4 | 0.00 | 0.00 | 1.19 | 58 | 1012.6 |
| 20260506234944 | 13 | 311 | 4.8 | 9.7 | 0.00 | 0.00 | 1.19 | 56 | 1012.8 |
| 20260506234443 | 13 | 339 | 4.8 | 8.0 | 0.00 | 0.00 | 1.19 | 56 | 1012.6 |
| 20260506233943 | 13 | 325 | 1.6 | 8.0 | 0.00 | 0.00 | 1.19 | 58 | 1012.5 |
| 20260506233443 | 13 | 338 | 3.2 | 9.7 | 0.00 | 0.00 | 1.19 | 57 | 1012.5 |
| 20260506232943 | 13 | 290 | 4.8 | 11.3 | 0.00 | 0.00 | 1.19 | 57 | 1012.4 |
| 20260506232440 | 13 | 338 | 3.2 | 12.9 | 0.00 | 0.00 | 1.19 | 57 | 1012.4 |
| 20260506231941 | 13 | 319 | 4.8 | 11.3 | 0.00 | 0.00 | 1.19 | 56 | 1012.4 |
| 20260506231439 | 13 | 359 | 3.2 | 8.0 | 0.00 | 0.00 | 1.19 | 54 | 1012.4 |
| 20260506230438 | 13 | 315 | 6.4 | 9.7 | 0.00 | 0.00 | 1.19 | 56 | 1012.6 |
| 20260506225938 | 13 | 329 | 4.8 | 11.3 | 0.00 | 0.00 | 1.19 | 55 | 1012.5 |
| 20260506224937 | 13 | 335 | 4.8 | 9.7 | 0.00 | 0.00 | 1.19 | 57 | 1012.5 |
| 20260506224437 | 13 | 305 | 1.6 | 6.4 | 0.00 | 0.00 | 1.19 | 57 | 1012.6 |
| 20260506223936 | 13 | 333 | 3.2 | 9.7 | 0.00 | 0.00 | 1.19 | 57 | 1012.8 |
| 20260506223436 | 13 | 338 | 4.8 | 11.3 | 0.00 | 0.00 | 1.19 | 54 | 1012.8 |
| 20260506222940 | 13 | 343 | 4.8 | 11.3 | 0.00 | 0.00 | 1.19 | 55 | 1012.8 |
| 20260506222434 | 13 | 307 | 4.8 | 9.7 | 0.00 | 0.00 | 1.19 | 54 | 1012.9 |
| 20260506221934 | 13 | 335 | 4.8 | 14.5 | 0.00 | 0.00 | 1.19 | 52 | 1012.9 |
| 20260506221433 | 13 | 328 | 3.2 | 9.7 | 0.00 | 0.00 | 1.19 | 55 | 1012.9 |
| 20260506220933 | 13 | 300 | 4.8 | 9.7 | 0.00 | 0.00 | 1.19 | 51 | 1013.0 |
| 20260506220434 | 13 | 322 | 6.4 | 12.9 | 0.00 | 0.00 | 1.19 | 51 | 1013.0 |
| 20260506215933 | 14 | 312 | 4.8 | 12.9 | 0.00 | 0.00 | 1.19 | 52 | 1013.0 |
| 20260506215432 | 14 | 255 | 4.8 | 12.9 | 0.00 | 0.00 | 1.19 | 51 | 1013.0 |
| 20260506214932 | 14 | 326 | 3.2 | 8.0 | 0.00 | 0.00 | 1.19 | 54 | 1012.9 |
| 20260506214428 | 14 | 332 | 4.8 | 9.7 | 0.00 | 0.00 | 1.19 | 53 | 1012.8 |
| 20260506213928 | 14 | 322 | 4.8 | 8.0 | 0.00 | 0.00 | 1.19 | 52 | 1012.9 |
| 20260506213428 | 14 | 326 | 6.4 | 11.3 | 0.00 | 0.00 | 1.19 | 52 | 1012.8 |
| 20260506212927 | 14 | 315 | 6.4 | 14.5 | 0.00 | 0.00 | 1.19 | 53 | 1012.8 |
| 20260506212427 | 14 | 345 | 6.4 | 12.9 | 0.00 | 0.00 | 1.19 | 50 | 1012.5 |
| 20260506211926 | 14 | 326 | 6.4 | 14.5 | 0.00 | 0.00 | 1.19 | 50 | 1012.4 |
| 20260506211426 | 14 | 339 | 4.8 | 11.3 | 0.00 | 0.00 | 1.19 | 49 | 1012.4 |
| 20260506210925 | 14 | 350 | 4.8 | 8.0 | 0.00 | 0.00 | 1.19 | 52 | 1012.4 |
| 20260506210424 | 13 | 318 | 3.2 | 12.9 | 0.00 | 0.00 | 1.19 | 51 | 1012.3 |
| 20260506205924 | 13 | 321 | 3.2 | 8.0 | 0.00 | 0.00 | 1.19 | 54 | 1012.3 |
| 20260506205424 | 13 | 284 | 6.4 | 9.7 | 0.00 | 0.00 | 1.19 | 51 | 1012.4 |
| 20260506204924 | 13 | 17 | 6.4 | 12.9 | 0.00 | 0.00 | 1.19 | 53 | 1012.2 |
| 20260506204422 | 13 | 321 | 6.4 | 12.9 | 0.00 | 0.00 | 1.19 | 54 | 1012.4 |
| 20260506203922 | 13 | 308 | 4.8 | 12.9 | 0.00 | 0.00 | 1.19 | 50 | 1012.4 |
| 20260506203421 | 13 | 316 | 6.4 | 12.9 | 0.00 | 0.00 | 1.19 | 53 | 1012.4 |
| 20260506202921 | 13 | 343 | 6.4 | 12.9 | 0.00 | 0.00 | 1.19 | 52 | 1012.4 |
| 20260506202421 | 14 | 293 | 6.4 | 12.9 | 0.00 | 0.00 | 1.19 | 52 | 1012.4 |
| 20260506201921 | 13 | 328 | 6.4 | 11.3 | 0.00 | 0.00 | 1.19 | 52 | 1012.3 |
| 20260506201420 | 14 | 339 | 4.8 | 8.0 | 0.00 | 0.00 | 1.19 | 53 | 1012.4 |
| 20260506200920 | 14 | 336 | 4.8 | 11.3 | 0.00 | 0.00 | 1.19 | 52 | 1012.3 |
| 20260506200421 | 14 | 330 | 6.4 | 14.5 | 0.00 | 0.00 | 1.19 | 52 | 1012.4 |
| 20260506195920 | 14 | 321 | 8.0 | 14.5 | 0.00 | 0.00 | 1.19 | 53 | 1012.3 |
| 20260506195419 | 14 | 330 | 8.0 | 12.9 | 0.00 | 0.00 | 1.19 | 52 | 1012.3 |
| 20260506195402 | 14 | 322 | 8.0 | 14.5 | 0.00 | 0.00 | 1.19 | 52 | 1012.3 |
| 20260506194919 | 14 | 322 | 8.0 | 14.5 | 0.00 | 0.00 | 1.19 | 52 | 1012.3 |
| 20260506194419 | 15 | 329 | 8.0 | 14.5 | 0.00 | 0.00 | 1.19 | 54 | 1012.3 |
| 20260506193919 | 15 | 326 | 6.4 | 16.1 | 0.00 | 0.00 | 1.19 | 53 | 1012.2 |
| 20260506193419 | 14 | 290 | 6.4 | 17.7 | 0.00 | 0.00 | 1.19 | 53 | 1012.1 |
| 20260506192918 | 14 | 28 | 8.0 | 16.1 | 0.00 | 0.00 | 1.19 | 52 | 1012.0 |
| 20260506192418 | 14 | 17 | 6.4 | 14.5 | 0.00 | 0.00 | 1.19 | 51 | 1012.1 |
| 20260506191918 | 14 | 25 | 9.7 | 19.3 | 0.00 | 0.00 | 1.19 | 51 | 1012.2 |
| 20260506191418 | 15 | 312 | 8.0 | 19.3 | 0.00 | 0.00 | 1.19 | 49 | 1012.1 |
| 20260506190917 | 15 | 319 | 8.0 | 12.9 | 0.00 | 0.00 | 1.19 | 48 | 1012.1 |
| 20260506190417 | 15 | 318 | 9.7 | 17.7 | 0.00 | 0.00 | 1.19 | 52 | 1012.1 |
| 20260506185918 | 15 | 314 | 8.0 | 16.1 | 0.00 | 0.00 | 1.19 | 54 | 1012.2 |
| 20260506185417 | 14 | 311 | 8.0 | 19.3 | 0.00 | 0.00 | 1.19 | 52 | 1012.1 |
| 20260506184916 | 14 | 309 | 6.4 | 11.3 | 0.00 | 0.00 | 1.19 | 50 | 1012.0 |
| 20260506184414 | 14 | 39 | 8.0 | 16.1 | 0.00 | 0.00 | 1.19 | 48 | 1012.0 |
| 20260506183913 | 15 | 326 | 8.0 | 14.5 | 0.00 | 0.00 | 1.19 | 51 | 1012.0 |
| 20260506183411 | 15 | 319 | 8.0 | 17.7 | 0.00 | 0.00 | 1.19 | 52 | 1011.9 |
| 20260506182911 | 15 | 14 | 8.0 | 14.5 | 0.00 | 0.00 | 1.19 | 52 | 1011.9 |
| 20260506182406 | 15 | 308 | 8.0 | 19.3 | 0.00 | 0.00 | 1.19 | 52 | 1012.1 |
| 20260506181906 | 15 | 280 | 8.0 | 14.5 | 0.00 | 0.00 | 1.19 | 51 | 1012.0 |
| 20260506181406 | 15 | 294 | 8.0 | 17.7 | 0.00 | 0.00 | 1.19 | 50 | 1012.0 |
| 20260506180906 | 15 | 31 | 11.3 | 19.3 | 0.00 | 0.00 | 1.19 | 54 | 1011.9 |
| 20260506180405 | 15 | 323 | 9.7 | 16.1 | 0.00 | 0.00 | 1.19 | 50 | 1012.0 |
| 20260506175905 | 15 | 323 | 8.0 | 14.5 | 0.00 | 0.00 | 1.19 | 57 | 1012.2 |
| 20260506175405 | 15 | 58 | 8.0 | 16.1 | 0.00 | 0.00 | 1.19 | 52 | 1012.3 |
| 20260506174905 | 15 | 349 | 6.4 | 12.9 | 0.00 | 0.00 | 1.19 | 59 | 1012.3 |
| 20260506174405 | 15 | 1 | 8.0 | 17.7 | 0.00 | 0.00 | 1.19 | 56 | 1012.4 |
| 20260506173904 | 15 | 316 | 6.4 | 12.9 | 0.00 | 0.00 | 1.19 | 57 | 1012.3 |
| 20260506173404 | 14 | 311 | 6.4 | 14.5 | 0.00 | 0.00 | 1.19 | 53 | 1012.2 |
| 20260506172904 | 14 | 11 | 8.0 | 16.1 | 0.00 | 0.00 | 1.19 | 56 | 1012.3 |
| 20260506172553 | 14 | 328 | 6.4 | 19.3 | 0.00 | 0.00 | 1.19 | 56 | 1012.4 |
| 20260506172404 | 14 | 328 | 6.4 | 19.3 | 0.00 | 0.00 | 1.19 | 56 | 1012.4 |
| 20260506171903 | 14 | 32 | 8.0 | 17.7 | 0.00 | 0.00 | 1.19 | 51 | 1012.5 |
| 20260506171403 | 14 | 7 | 9.7 | 17.7 | 0.00 | 0.00 | 1.19 | 60 | 1012.4 |
| 20260506170903 | 14 | 46 | 8.0 | 16.1 | 0.00 | 0.00 | 1.19 | 58 | 1012.4 |
| 20260506170403 | 13 | 25 | 6.4 | 14.5 | 0.00 | 0.00 | 1.19 | 54 | 1012.5 |
| 20260506165902 | 13 | 38 | 9.7 | 16.1 | 0.00 | 0.00 | 1.19 | 55 | 1012.6 |
| 20260506165402 | 13 | 35 | 8.0 | 16.1 | 0.00 | 0.00 | 1.19 | 56 | 1012.6 |
| 20260506164902 | 13 | 283 | 6.4 | 14.5 | 0.00 | 0.00 | 1.19 | 61 | 1012.6 |
| 20260506164402 | 13 | 321 | 4.8 | 12.9 | 0.00 | 0.00 | 1.19 | 58 | 1012.5 |
| 20260506163901 | 13 | 336 | 4.8 | 12.9 | 0.00 | 0.00 | 1.19 | 61 | 1012.6 |
| 20260506163534 | 13 | 329 | 6.4 | 14.5 | 0.00 | 0.00 | 1.19 | 58 | 1012.5 |
| 20260506163401 | 13 | 329 | 6.4 | 14.5 | 0.00 | 0.00 | 1.19 | 58 | 1012.5 |
| 20260506162901 | 13 | 28 | 6.4 | 14.5 | 0.00 | 0.00 | 1.19 | 56 | 1012.5 |
| 20260506162401 | 13 | 318 | 8.0 | 16.1 | 0.00 | 0.00 | 1.19 | 58 | 1012.5 |
| 20260506161902 | 13 | 333 | 6.4 | 14.5 | 0.00 | 0.00 | 1.19 | 58 | 1012.4 |
| 20260506161359 | 13 | 302 | 8.0 | 12.9 | 0.00 | 0.00 | 1.19 | 59 | 1012.3 |
| 20260506160858 | 13 | 314 | 6.4 | 16.1 | 0.00 | 0.00 | 1.19 | 58 | 1012.4 |
| 20260506160358 | 12 | 304 | 8.0 | 14.5 | 0.00 | 0.00 | 1.19 | 65 | 1012.4 |
| 20260506155858 | 12 | 311 | 4.8 | 14.5 | 0.00 | 0.00 | 1.19 | 63 | 1012.3 |
| 20260506155358 | 12 | 301 | 6.4 | 14.5 | 0.00 | 0.00 | 1.19 | 65 | 1012.3 |
| 20260506154857 | 12 | 28 | 8.0 | 12.9 | 0.00 | 0.00 | 1.19 | 62 | 1012.3 |
| 20260506154357 | 12 | 44 | 8.0 | 12.9 | 0.00 | 0.00 | 1.19 | 63 | 1012.6 |
| 20260506153854 | 12 | 4 | 8.0 | 12.9 | 0.00 | 0.00 | 1.19 | 65 | 1012.8 |
| 20260506153354 | 12 | 23 | 4.8 | 11.3 | 0.00 | 0.00 | 1.19 | 66 | 1012.6 |
| 20260506152854 | 12 | 343 | 6.4 | 14.5 | 0.00 | 0.00 | 1.19 | 66 | 1012.6 |
| 20260506152354 | 12 | 309 | 8.0 | 16.1 | 0.00 | 0.00 | 1.19 | 64 | 1012.5 |
| 20260506151853 | 12 | 32 | 4.8 | 9.7 | 0.00 | 0.00 | 1.19 | 68 | 1012.3 |
| 20260506151516 | 12 | 323 | 8.0 | 14.5 | 0.00 | 0.00 | 1.19 | 66 | 1012.1 |
| 20260506151353 | 12 | 323 | 8.0 | 14.5 | 0.00 | 0.00 | 1.19 | 66 | 1012.1 |
| 20260506150853 | 12 | 318 | 8.0 | 14.5 | 0.00 | 0.00 | 1.19 | 65 | 1012.0 |
| 20260506150353 | 11 | 315 | 8.0 | 12.9 | 0.00 | 0.00 | 1.19 | 66 | 1011.9 |
| 20260506145852 | 11 | 17 | 9.7 | 17.7 | 0.00 | 0.00 | 1.19 | 68 | 1011.6 |
| 20260506145352 | 11 | 30 | 8.0 | 16.1 | 0.00 | 0.00 | 1.19 | 70 | 1011.6 |
| 20260506144850 | 11 | 328 | 8.0 | 22.5 | 0.00 | 0.00 | 1.17 | 70 | 1011.6 |
| 20260506144350 | 11 | 69 | 6.4 | 16.1 | 0.00 | 0.00 | 1.17 | 70 | 1011.5 |
| 20260506143850 | 11 | 55 | 4.8 | 12.9 | 0.00 | 0.00 | 1.17 | 71 | 1011.4 |
| 20260506143349 | 11 | 311 | 8.0 | 16.1 | 0.00 | 0.00 | 1.17 | 69 | 1011.3 |
| 20260506142851 | 11 | 27 | 6.4 | 16.1 | 0.00 | 0.00 | 1.17 | 71 | 1011.4 |
| 20260506142349 | 11 | 305 | 4.8 | 11.3 | 0.00 | 0.00 | 1.17 | 76 | 1011.6 |
| 20260506141849 | 10 | 332 | 6.4 | 12.9 | 0.00 | 0.00 | 1.17 | 75 | 1011.4 |
| 20260506141349 | 10 | 325 | 6.4 | 14.5 | 0.00 | 0.00 | 1.17 | 76 | 1011.3 |
| 20260506140848 | 10 | 333 | 8.0 | 16.1 | 0.00 | 0.00 | 1.17 | 72 | 1011.2 |
| 20260506140346 | 10 | 333 | 9.7 | 17.7 | 0.00 | 0.00 | 1.17 | 76 | 1011.3 |
| 20260506135846 | 10 | 340 | 8.0 | 19.3 | 0.00 | 0.00 | 1.17 | 76 | 1011.2 |
| 20260506135345 | 10 | 333 | 6.4 | 14.5 | 0.00 | 0.00 | 1.17 | 80 | 1011.3 |
| 20260506134845 | 10 | 338 | 6.4 | 14.5 | 0.00 | 0.00 | 1.17 | 81 | 1011.5 |
| 20260506134345 | 9 | 342 | 1.6 | 8.0 | 0.00 | 0.00 | 1.17 | 82 | 1011.6 |
| 20260506133845 | 9 | 312 | 4.8 | 12.9 | 0.00 | 0.00 | 1.17 | 83 | 1011.4 |
| 20260506133344 | 9 | 301 | 4.8 | 11.3 | 0.00 | 0.00 | 1.17 | 82 | 1011.3 |
| 20260506132844 | 9 | 336 | 1.6 | 9.7 | 0.00 | 0.00 | 1.17 | 85 | 1011.1 |
| 20260506132343 | 8 | 359 | 1.6 | 9.7 | 0.00 | 0.00 | 1.17 | 85 | 1011.0 |
| 20260506131843 | 8 | 323 | 3.2 | 12.9 | 0.00 | 0.00 | 1.17 | 85 | 1011.0 |
| 20260506131342 | 8 | 329 | 4.8 | 11.3 | 0.00 | 0.00 | 1.17 | 83 | 1011.1 |
| 20260506130841 | 8 | 330 | 1.6 | 9.7 | 0.00 | 0.00 | 1.17 | 84 | 1011.1 |
| 20260506130341 | 8 | 338 | 4.8 | 11.3 | 0.00 | 0.00 | 1.17 | 84 | 1010.8 |
| 20260506125841 | 8 | 335 | 1.6 | 11.3 | 0.00 | 0.00 | 1.17 | 86 | 1010.8 |
| 20260506125341 | 8 | 332 | 4.8 | 14.5 | 0.00 | 0.00 | 1.17 | 85 | 1010.8 |
| 20260506124840 | 8 | 349 | 0.0 | 8.0 | 0.00 | 0.00 | 1.17 | 86 | 1010.7 |
| 20260506124341 | 8 | 318 | 0.0 | 8.0 | 0.00 | 0.00 | 1.17 | 86 | 1010.6 |
| 20260506123840 | 8 | 339 | 1.6 | 11.3 | 0.00 | 0.00 | 1.17 | 87 | 1010.4 |
| 20260506123340 | 8 | 6 | 3.2 | 14.5 | 0.00 | 0.00 | 1.17 | 86 | 1010.5 |
| 20260506122839 | 7 | 318 | 4.8 | 17.7 | 0.00 | 0.00 | 1.17 | 87 | 1010.5 |
| 20260506122339 | 8 | 319 | 4.8 | 14.5 | 0.00 | 0.00 | 1.17 | 88 | 1010.5 |
| 20260506121839 | 7 | 330 | 8.0 | 16.1 | 0.00 | 0.00 | 1.17 | 87 | 1010.5 |
| 20260506121339 | 7 | 343 | 4.8 | 12.9 | 0.00 | 0.00 | 1.17 | 88 | 1010.3 |
| 20260506120839 | 7 | 31 | 4.8 | 11.3 | 0.00 | 0.00 | 1.17 | 88 | 1010.4 |
| 20260506120338 | 7 | 332 | 8.0 | 12.9 | 0.00 | 0.00 | 1.17 | 88 | 1010.1 |
| 20260506115838 | 7 | 330 | 1.6 | 9.7 | 0.00 | 0.00 | 1.17 | 89 | 1010.1 |
| 20260506115338 | 7 | 316 | 3.2 | 8.0 | 0.00 | 0.00 | 1.17 | 90 | 1010.0 |
| 20260506114838 | 7 | 323 | 4.8 | 11.3 | 0.00 | 0.00 | 1.17 | 89 | 1009.7 |
| 20260506114337 | 7 | 316 | 4.8 | 11.3 | 0.00 | 0.00 | 1.17 | 89 | 1009.5 |
| 20260506113837 | 7 | 328 | 4.8 | 12.9 | 0.00 | 0.00 | 1.17 | 90 | 1009.3 |
| 20260506113337 | 7 | 314 | 3.2 | 11.3 | 0.00 | 0.00 | 1.17 | 90 | 1009.0 |
| 20260506112335 | 7 | 311 | 6.4 | 16.1 | 0.00 | 0.00 | 1.17 | 90 | 1009.1 |
| 20260506111835 | 7 | 307 | 6.4 | 17.7 | 0.00 | 0.00 | 1.17 | 91 | 1009.0 |
| 20260506111334 | 7 | 323 | 6.4 | 14.5 | 0.00 | 0.00 | 1.17 | 91 | 1009.2 |
| 20260506110834 | 7 | 333 | 6.4 | 11.3 | 0.00 | 0.00 | 1.17 | 92 | 1009.4 |
| 20260506110333 | 7 | 333 | 4.8 | 12.9 | 0.00 | 0.00 | 1.17 | 93 | 1009.3 |
| 20260506105833 | 7 | 332 | 4.8 | 12.9 | 0.00 | 0.00 | 1.17 | 93 | 1009.1 |
| 20260506105333 | 7 | 318 | 4.8 | 12.9 | 0.00 | 0.00 | 1.17 | 93 | 1008.8 |
| 20260506104833 | 7 | 335 | 1.6 | 9.7 | 0.00 | 0.00 | 1.17 | 93 | 1008.8 |
| 20260506104331 | 7 | 322 | 0.0 | 3.2 | 0.00 | 0.00 | 1.17 | 93 | 1009.0 |
| 20260506103830 | 7 | 255 | 0.0 | 3.2 | 0.00 | 0.00 | 1.17 | 94 | 1009.2 |
| 20260506103330 | 7 | 322 | 0.0 | 3.2 | 0.00 | 0.00 | 1.17 | 94 | 1009.1 |
| 20260506102830 | 7 | 322 | 4.8 | 11.3 | 0.00 | 0.00 | 1.17 | 93 | 1008.4 |
| 20260506102328 | 7 | 329 | 3.2 | 12.9 | 0.00 | 0.00 | 1.17 | 93 | 1008.1 |
| 20260506101829 | 7 | 308 | 1.6 | 8.0 | 0.00 | 0.00 | 1.17 | 94 | 1008.3 |
| 20260506101327 | 7 | 332 | 3.2 | 11.3 | 0.00 | 0.00 | 1.17 | 94 | 1008.0 |
| 20260506100829 | 7 | 307 | 3.2 | 11.3 | 0.00 | 0.00 | 1.17 | 94 | 1008.0 |
| 20260506100325 | 7 | 311 | 3.2 | 11.3 | 0.00 | 0.00 | 1.17 | 94 | 1008.2 |
| 20260506095826 | 7 | 308 | 3.2 | 9.7 | 0.00 | 0.00 | 1.17 | 94 | 1008.4 |
| 20260506095325 | 7 | 350 | 1.6 | 6.4 | 0.00 | 0.00 | 1.17 | 94 | 1008.3 |
| 20260506094824 | 7 | 302 | 1.6 | 9.7 | 0.00 | 0.00 | 1.17 | 94 | 1008.2 |